This demonstration page uses our WeatherBlox Daily Observations layout. Learn more.

Hourly Observations for May 1, 2016

Temp ( °F °C ) Dew Point ( °F °C ) Humidity (%) Winds ( mph kmh ) Pressure ( in mb ) Visibility ( mi km ) Precip ( " mm )
12:15 am 00:15 Cloudy with Mist and Fog 41 5.1 40 4.5 96 96 NW 8 13 29.94 1014 3 4.82802 0 0
12:35 am 00:35 Cloudy with Drizzle 42 5.3 40 4.6 95 95 NNW 7 11 30 1016 2 3.21868 0 0
12:55 am 00:55 Cloudy with Light Rain 42 5.8 41 5.1 95 95 NNE 18 30 29.97 1015 3 4.82802 0.01 0.254
1:15 am 01:15 Cloudy with Light Rain 42 5.7 41 5 95 95 N 16 26 29.97 1015 4 6.43736 0 0
1:35 am 01:35 Cloudy with Rain 42 5.6 41 5 96 96 N 17 28 29.97 1015 3 4.82802 0.01 0.254
1:55 am 01:55 Cloudy with Light Drizzle 42 5.5 41 4.8 95 95 N 18 30 29.97 1015 4 6.43736 0.01 0.254
2:15 am 02:15 Cloudy with Drizzle 41 5.2 40 4.5 95 95 N 16 26 30 1016 4 6.43736 0 0
2:35 am 02:35 Cloudy with Drizzle 41 5.1 40 4.5 96 96 N 17 28 30.03 1017 4 6.43736 0.01 0.254
2:55 am 02:55 Cloudy with Light Drizzle 41 5 40 4.2 95 95 N 16 26 30.03 1017 4 6.43736 0.01 0.254
3:15 am 03:15 Cloudy with Light Drizzle 41 4.8 39 4.1 95 95 N 18 30 30.03 1017 3 4.82802 0 0
3:35 am 03:35 Cloudy with Mist and Fog 40 4.6 39 4 96 96 N 18 30 30.03 1017 3 4.82802 0 0
3:55 am 03:55 Cloudy with Mist and Fog 40 4.5 39 3.7 95 95 N 21 33 30.03 1017 3 4.82802 0 0
4:15 am 04:15 Cloudy with Mist and Fog 40 4.3 38 3.5 95 95 N 20 31 30.03 1017 4 6.43736 0 0
4:35 am 04:35 Cloudy with Mist and Fog 39 4.1 38 3.3 95 95 N 22 35 30.06 1018 3 4.82802 0 0
4:55 am 04:55 Cloudy 39 4 38 3.1 94 94 N 21 33 30.06 1018 10 16.0934 0 0
5:15 am 05:15 Cloudy with Light Rain 39 4 37 3 93 93 N 21 33 30.06 1018 7 11.26538 0 0
5:35 am 05:35 Cloudy 39 4.1 37 3 93 93 N 23 37 30.09 1019 10 16.0934 0 0
5:55 am 05:55 Cloudy 39 4.1 37 2.8 91 91 N 18 30 30.09 1019 10 16.0934 0 0
6:15 am 06:15 Cloudy 40 4.2 37 3 92 92 N 20 31 30.09 1019 10 16.0934 0 0
6:35 am 06:35 Cloudy 39 4.1 37 2.8 91 91 N 18 30 30.09 1019 10 16.0934 0 0
6:55 am 06:55 Cloudy with Light Drizzle 39 4.1 37 3 93 93 N 18 30 30.12 1020 10 16.0934 0 0
7:15 am 07:15 Cloudy with Drizzle 40 4.2 37 3 92 92 N 17 28 30.12 1020 10 16.0934 0 0
7:35 am 07:35 Cloudy with Light Rain 40 4.2 38 3.1 93 93 N 16 26 30.15 1021 10 16.0934 0 0
7:55 am 07:55 Cloudy with Light Drizzle 40 4.3 38 3.3 93 93 N 16 26 30.15 1021 10 16.0934 0 0
8:15 am 08:15 Cloudy with Light Rain 40 4.3 37 2.8 90 90 N 21 33 30.15 1021 10 16.0934 0 0
8:35 am 08:35 Cloudy 40 4.5 37 3 90 90 N 20 31 30.15 1021 10 16.0934 0 0
8:55 am 08:55 Cloudy 40 4.7 38 3.2 90 90 N 20 31 30.18 1022 10 16.0934 0 0
9:15 am 09:15 Cloudy 41 5 38 3.5 90 90 N 16 26 30.18 1022 10 16.0934 0 0
9:35 am 09:35 Cloudy 42 5.5 39 3.8 89 89 N 18 30 30.18 1022 10 16.0934 0 0
9:55 am 09:55 Cloudy 42 5.7 39 4 89 89 N 16 26 30.18 1022 10 16.0934 0 0
10:15 am 10:15 Cloudy 43 6 40 4.3 89 89 N 21 33 30.18 1022 10 16.0934 0 0
10:35 am 10:35 Cloudy 43 6.1 39 4 87 87 N 20 31 30.18 1022 10 16.0934 0 0
10:55 am 10:55 Cloudy 44 6.5 40 4.2 85 85 N 20 31 30.18 1022 10 16.0934 0 0
11:15 am 11:15 Cloudy 45 7 40 4.4 84 84 N 22 35 30.21 1023 10 16.0934 0 0
11:35 am 11:35 Cloudy 44 6.8 40 4.2 84 84 N 23 37 30.21 1023 10 16.0934 0 0
11:55 am 11:55 Cloudy 45 7.4 41 5.2 86 86 N 16 26 30.18 1022 10 16.0934 0 0
12:15 pm 12:15 Cloudy 45 7.1 41 4.9 86 86 N 18 30 30.21 1023 10 16.0934 0 0
12:35 pm 12:35 Cloudy 45 7 40 4.7 85 85 N 15 24 30.21 1023 10 16.0934 0 0
12:55 pm 12:55 Cloudy 45 7.2 40 4.4 83 83 N 14 22 30.21 1023 10 16.0934 0 0
1:15 pm 13:15 Cloudy 45 7.2 40 4.4 83 83 N 18 30 30.21 1023 10 16.0934 0 0
1:35 pm 13:35 Cloudy 45 7.2 40 4.4 83 83 N 16 26 30.24 1024 10 16.0934 0 0
1:55 pm 13:55 Cloudy 46 7.9 40 4.6 80 80 N 16 26 30.21 1023 10 16.0934 0 0
2:15 pm 14:15 Cloudy 46 7.5 40 4.2 80 80 N 16 26 30.24 1024 10 16.0934 0 0
2:35 pm 14:35 Cloudy 47 8.1 40 4.4 78 78 N 21 33 30.18 1022 10 16.0934 0 0
2:55 pm 14:55 Cloudy 48 8.9 41 5 77 77 N 21 33 30.18 1022 10 16.0934 0 0
3:15 pm 15:15 Cloudy 49 9.4 41 5 74 74 N 24 39 30.18 1022 10 16.0934 0 0
3:35 pm 15:35 Mostly Cloudy 50 9.8 41 4.8 71 71 NNE 24 39 30.15 1021 10 16.0934 0 0
3:55 pm 15:55 Mostly Cloudy 50 9.9 41 5.2 73 73 NNE 25 41 30.15 1021 10 16.0934 0 0
4:15 pm 16:15 Mostly Cloudy 50 10.1 40 4.5 68 68 NNE 24 39 30.15 1021 10 16.0934 0 0
4:35 pm 16:35 Mostly Cloudy 49 9.4 40 4.7 73 73 N 22 35 30.15 1021 10 16.0934 0 0
4:55 pm 16:55 Cloudy 49 9.2 40 4.3 72 72 NNE 20 31 30.15 1021 10 16.0934 0 0
5:15 pm 17:15 Cloudy 49 9.5 40 4.4 71 71 NNE 14 22 30.15 1021 10 16.0934 0 0
5:35 pm 17:35 Cloudy 49 9.6 40 4.5 71 71 NE 15 24 30.18 1022 10 16.0934 0 0
5:55 pm 17:55 Cloudy 49 9.2 39 4 70 70 NE 10 17 30.18 1022 10 16.0934 0 0
6:15 pm 18:15 Cloudy 49 9.2 39 3.8 69 69 NE 12 19 30.21 1023 10 16.0934 0 0
6:35 pm 18:35 Cloudy 48 9 39 3.7 70 70 NE 8 13 30.21 1023 10 16.0934 0 0
6:55 pm 18:55 Cloudy 48 9 40 4.2 72 72 NE 6 9 30.21 1023 10 16.0934 0 0
7:35 pm 19:35 Cloudy 47 8.6 39 4 73 73 NNE 7 11 30.18 1022 10 16.0934 0 0
7:55 pm 19:55 Cloudy 47 8.5 40 4.2 75 75 NNE 7 11 30.18 1022 10 16.0934 0 0
8:15 pm 20:15 Cloudy 47 8.4 40 4.6 77 77 NNE 6 9 30.18 1022 10 16.0934 0 0
8:35 pm 20:35 Mostly Cloudy 45 7.4 40 4.2 80 80 NNE 5 7 30.18 1022 10 16.0934 0 0
8:55 pm 20:55 Partly Cloudy 44 6.5 39 3.8 83 83 Calm 30.21 1023 10 16.0934 0 0
9:15 pm 21:15 Clear 43 6 39 4 87 87 Calm 30.24 1024 10 16.0934 0 0
9:35 pm 21:35 Clear 43 5.9 39 3.8 87 87 Calm 30.24 1024 10 16.0934 0 0
9:55 pm 21:55 Clear 41 5 38 3.6 91 91 Calm 30.24 1024 10 16.0934 0 0
10:15 pm 22:15 Clear 41 5.1 39 4 93 93 Calm 30.24 1024 10 16.0934 0 0
10:35 pm 22:35 Clear 42 5.5 39 4 90 90 Calm 30.24 1024 10 16.0934 0 0
10:55 pm 22:55 Clear 40 4.4 38 3.2 92 92 Calm 30.27 1025 10 16.0934 0 0
11:15 pm 23:15 Clear 39 3.9 37 2.9 93 93 WNW 3 6 30.27 1025 10 16.0934 0 0
11:35 pm 23:35 Clear 40 4.2 37 3 92 92 WNW 3 6 30.27 1025 10 16.0934 0 0
11:55 pm 23:55 Clear 38 3.5 36 2.4 93 93 Calm 30.27 1025 10 16.0934 0 0

Powered by AerisWeather